Voltar ao catálogo

OPS 8364

DMSP 4

AtivoMeteoSSO
NORAD 6787·PAYLOAD·🇺🇸 United States

Lançado Aug 17, 1973 de Vandenberg Space Force Base

Loading…

Próximas Passagens (próximas 24 horas)

TLE

AtualizadoSource: Space-Track

Época: Sep 14, 2026, 01:22 UTC

1 06787U 73054A   26257.05758418  .00000156  00000-0  71733-4 0  9994
2 06787  98.5510 123.8065 0026411 130.1252 230.2253 14.33731616764505

Acompanhe OPS 8364 em tempo real com AllMySat

Download on the App Store